Weather History for PAEN - May, 2012

Change the Weather History Date:

Friday, May 25, 2012

  Actual Average Record
Temperature  
Mean Temperature 48 °F -  
Max Temperature 57 °F 54 °F 75 °F (2006)
Min Temperature 41 °F 37 °F 27 °F (1976)
Degree Days  
Heating Degree Days 17    
Moisture  
Dew Point 38 °F    
Average Humidity 70    
Maximum Humidity 97    
Minimum Humidity 43    
Precipitation  
Precipitation 0.01 in - - ()
Sea Level Pressure  
Sea Level Pressure 29.86 in    
Wind  
Wind Speed 6 mph (ENE)    
Max Wind Speed 18 mph    
Max Gust Speed 23 mph    
Visibility 10 miles    
Events Rain    
Averages and records for this station are not official NWS values.
T = Trace of Precipitation, MM = Missing Value Source: NWS Daily Summary

Daily Weather History Graph

Daily Weather History Graph

Search for Another Location

Airport or City:

Trip Planner

Search our weather history database for the weather conditions in past years. The results will help you decide how hot, cold, wet, or windy it might be!

Date:

Astronomy

May. 25, 2012 Rise Set
Actual Time 4:59 AM AKDT 11:06 PM AKDT
Civil Twilight 3:39 AM AKDT 12:27 AM AKDT
Nautical Twilight Sun does not set Sun does not set
Astronomical Twilight Sun does not set Sun does not set
Moon 9:39 AM AKDT (5/25) 1:44 AM AKDT (5/25)
Length of Visible Light 20h 48m
Length of Day
18h 06m
Waxing Crescent, 21% of the Moon is Illuminated
May 25
Waxing Crescent
May 28
First Quarter
Jun 4
Full
Jun 11
Last Quarter
Jun 19
New

Hourly Weather History & Observations

Time (AKDT) Temp. Windchill Dew Point Humidity Pressure Visibility Wind Dir Wind Speed Gust Speed Precip Events Conditions
12:53 AM 44.1 °F 40.8 °F 41.0 °F 89% 30.03 in 10.0 mi SSW 5.8 mph - N/A   Overcast
1:53 AM 43.0 °F - 39.9 °F 89% 30.02 in 10.0 mi Calm Calm - N/A   Mostly Cloudy
2:53 AM 42.1 °F - 39.9 °F 92% 30.01 in 10.0 mi Calm Calm - N/A   Overcast
3:53 AM 42.1 °F - 39.9 °F 92% 30.00 in 10.0 mi Calm Calm - N/A   Overcast
4:53 AM 42.1 °F - 39.9 °F 92% 29.98 in 10.0 mi Calm Calm - N/A   Overcast
5:53 AM 41.0 °F - 39.9 °F 96% 29.97 in 10.0 mi Calm Calm - N/A   Overcast
6:53 AM 43.0 °F - 42.1 °F 97% 29.96 in 10.0 mi Calm Calm - 0.00 in   Overcast
7:53 AM 44.1 °F 41.5 °F 42.1 °F 93% 29.95 in 10.0 mi North 4.6 mph - 0.01 in   Overcast
8:53 AM 46.9 °F - 43.0 °F 86% 29.93 in 10.0 mi North 6.9 mph - N/A   Mostly Cloudy
9:44 AM 48.2 °F - 44.6 °F 87% 29.89 in 10.0 mi NNE 9.2 mph - N/A   Mostly Cloudy
9:53 AM 48.9 °F - 44.1 °F 83% 29.89 in 10.0 mi NE 10.4 mph - N/A   Overcast
10:53 AM 53.1 °F - 42.1 °F 66% 29.87 in 10.0 mi NNE 10.4 mph - N/A   Overcast
11:53 AM 54.0 °F - 39.0 °F 57% 29.84 in 10.0 mi NE 9.2 mph 18.4 mph N/A   Overcast
12:53 PM 55.0 °F - 37.0 °F 51% 29.82 in 10.0 mi ENE 10.4 mph - N/A   Overcast
1:53 PM 55.9 °F - 34.0 °F 44% 29.81 in 10.0 mi East 12.7 mph - N/A   Overcast
2:53 PM 55.9 °F - 34.0 °F 44% 29.79 in 10.0 mi East 12.7 mph 19.6 mph N/A   Overcast
3:53 PM 54.0 °F - 32.0 °F 43% 29.78 in 10.0 mi East 16.1 mph 21.9 mph N/A   Overcast
4:53 PM 53.1 °F - 30.9 °F 43% 29.77 in 10.0 mi East 18.4 mph 23.0 mph N/A   Overcast
5:53 PM 53.1 °F - 33.1 °F 47% 29.76 in 10.0 mi East 12.7 mph 21.9 mph N/A   Overcast
6:53 PM 51.1 °F - 36.0 °F 56% 29.75 in 10.0 mi ENE 10.4 mph - 0.00 in Rain Light Rain
7:53 PM 52.0 °F - 33.1 °F 49% 29.73 in 10.0 mi East 9.2 mph - 0.00 in   Overcast
8:53 PM 50.0 °F - 35.1 °F 57% 29.73 in 10.0 mi ENE 8.1 mph - N/A   Overcast
9:53 PM 48.9 °F - 35.1 °F 59% 29.72 in 10.0 mi East 5.8 mph - N/A   Overcast
10:53 PM 48.0 °F - 35.1 °F 61% 29.73 in 10.0 mi East 5.8 mph - N/A   Overcast
11:53 PM 46.0 °F 44.8 °F 36.0 °F 68% 29.73 in 10.0 mi East 3.5 mph - N/A   Overcast